Weather Service Report


512 
ASUS44 KEWX 282011
RWRTX 
SOUTH TEXAS REGIONAL WEATHER ROUNDUP
NATIONAL WEATHER SERVICE AUSTIN/SAN ANTONIO TX
300 PM CDT SAT MAY 28 2016

NOTE: "FAIR" INDICATED FEW OR NO CLOUDS BELOW 12,000 FEET WITH NO
SIGNIFICANT WEATHER AND/OR OBSTRUCTIONS TO VISIBILITY.

* - THESE STATIONS ARE NOT NWS OR FAA STATIONS...AND ARE NOT SUBJECT
    TO NWS AND FAA QUALITY CONTROL.
 
TXZ171-172-183>190-282100-
TEXAS HILL COUNTRY AND EDWARDS PLATEAU
  
CITY           SKY/WX    TMP DP  RH WIND       PRES   REMARKS
JUNCTION       MOSUNNY   89  68  49 S16       29.94F HX  93           
*LLANO         SUNNY     90  75  62 S8        29.96F HX 100           
BURNET         MOSUNNY   88  69  53 S8G17     29.97S HX  92           
*HORSESHOE BAY PTSUNNY   90  70  52 S7G17     29.94F HX  95           
*KERRVILLE     MOSUNNY   89  73  58 S10G17    29.96F HX  96           
*FREDERICKSBRG PTSUNNY   87  67  52 S14G20    29.97S                  
*ROCKSPRINGS   MOSUNNY   86  72  62 S12G18    29.99F HX  92           
*BOERNE STAGE  PTSUNNY   86  70  58 S9        29.96S HX  90           
*CASTROVILLE   MOSUNNY   90  71  54 E13       29.92F HX  96           
HONDO          PTSUNNY   88  73  61 S15       29.92F HX  95           
*UVALDE        MOSUNNY   89  74  60 SE10      29.90F HX  98           
DEL RIO        MOSUNNY   91  71  51 SE15G26   29.86F HX  97           
LAUGHLIN AFB   MOSUNNY   89  73  59 S13G20    29.88F HX  97           
CARRIZO SPRGS  MOSUNNY   91  72  52 SE9G18    29.86F HX  98           
*EAGLE PASS    PTCLDY    93  72  49 E10G18    29.87F HX 100           
$$

TXZ173-191>194-202-209-217>225-228-282100-
CENTRAL AND SOUTH CENTRAL TEXAS
  
CITY           SKY/WX    TMP DP  RH WIND       PRES   REMARKS
GEORGETOWN     PTSUNNY   90  73  58 S12       29.93F HX  98           
AUSTIN/BERGSTM PTSUNNY   90  74  59 S15       29.92F HX  99           
AUSTIN/MABRY   MOSUNNY   90  75  61 S7        29.94S HX 100           
*AUSTIN/EXEC   MOSUNNY   90  73  58 S13       29.94S HX  98           
*LAGO VISTA    MOSUNNY   90  71  54 S10G17    29.96S HX  96           
SAN MARCOS     MOSUNNY   90  75  62 S14       29.93F HX 100           
NEW BRAUNFELS  MOSUNNY   91  74  57 SE13      29.91F HX 100           
RANDOLPH AFB   MOSUNNY   89  75  63 SE15      29.92F HX  99           
PT SAN ANTONIO MOSUNNY   89  73  59 SE13G23   29.90F HX  98           
SAN ANTONIO    MOSUNNY   91  73  55 SE13G21   29.93S HX  99           
STINSON FIELD  MOSUNNY   92  73  53 S9        29.89F HX 100           
*PLEASANTON    MOSUNNY   93  71  49 SE10      29.90F HX  99           
*LA GRANGE       N/A     90  76  64 S8        29.93S HX 101           
*GIDDINGS      MOSUNNY   88  73  59 S7        29.98S HX  95           
*GONZALES      MOSUNNY   90  75  62 S13       29.92F HX 100           
$$

TXZ163>164-176>182-195>201-210>213-226-227-235-282100-
SOUTHEAST TEXAS
  
CITY           SKY/WX    TMP DP  RH WIND       PRES   REMARKS
COLLEGE STN    MOSUNNY   88  73  61 S10       29.95S HX  95           
*BRYAN         MOSUNNY   89  74  62 S9        29.96F HX  98           
*CALDWELL      MOSUNNY   88  72  58 S10       29.97S HX  94           
*CROCKETT      PTSUNNY   86  73  66 SW9       30.00F HX  93           
*BRENHAM       PTSUNNY   89  74  60 S9        29.95S HX  97           
HUNTSVILLE     PTSUNNY   88  71  57 S8        29.97S HX  94           
CONROE         MOSUNNY   89  69  51 S13       29.97S HX  93           
HOUSTON BUSH   MOSUNNY   89  69  51 S9        29.95F HX  93           
HOUSTON HOBBY  MOSUNNY   89  69  51 SE12      29.96S HX  93           
*HOUSTON SW AP PTSUNNY   87  73  62 S6        29.97S HX  95           
PEARLAND       SUNNY     90  69  50 S8        29.98S HX  94           
HOUSTON HOOKS  MOSUNNY   88  72  58 SW9       29.96S HX  94           
ELLINGTON FLD  MOSUNNY   88  73  62 S8        29.98F HX  96           
SUGAR LAND     PTSUNNY   89  71  55 S9        29.95F HX  95           
*HOUSTON EXEC  PTSUNNY   88  73  62 SW13      29.97S HX  96           
*CLEVELAND MUN MOSUNNY   88  73  61 SW7       29.98S HX  96           
*WHARTON       SUNNY     88  72  58 S13       29.97S HX  94           
*COLUMBUS      FAIR      86  75  68 S12       29.95S HX  95           
*EAGLE LAKE    MOCLDY    87  74  63 SW15G21   29.95S HX  95           
$$

TXZ214>216-236>238-282100-
THE UPPER TEXAS COAST
  
CITY           SKY/WX    TMP DP  RH WIND       PRES   REMARKS
*ORANGE        SUNNY     86  65  48 S8        30.01S                  
PORT ARTHUR    SUNNY     87  69  54 S6        29.99R HX  91           
GALVESTON      MOSUNNY   82  76  81 S10       29.99S                  
ANGLETON       SUNNY     88  71  57 S16       29.97S HX  94           
*BAY CITY      SUNNY     87  72  61 S12       29.97S HX  94           
PALACIOS       SUNNY     87  71  58 S14       29.96S HX  93           
$$

TXZ229>234-239>247-282100-
TEXAS COASTAL BEND AND RIO GRANDE PLAINS
  
CITY           SKY/WX    TMP DP  RH WIND       PRES   REMARKS
VICTORIA       MOSUNNY   87  73  62 S17G24    29.95S HX  94           
*BEEVILLE      CLOUDY    88  77  70 SE15G23   29.92S HX 100           
ROCKPORT       MOSUNNY   87  74  64 SE18G26   29.93S HX  95           
*PORT ARANSAS  MOSUNNY   86  76  73 SE14G22   29.93S HX  96           
*PORT LAVACA   PTSUNNY   87  75  67 S14G23    29.95S HX  96           
*INGLESIDE     MOSUNNY   76  65  67 S17G23    29.92F                  
CORPUS CHRISTI PTSUNNY   87  75  67 SE16G29   29.91F HX  96           
CORPUS NAS     MOSUNNY   87  78  74 SE20      29.92S HX 100           
*ROBSTOWN      PTSUNNY   88  76  68 SE16G24   29.92S HX  99           
ALICE          PTSUNNY   89  75  63 SE20G30   29.89S HX  99           
KINGSVILLE NAS PTSUNNY   88  79  74 SE21G26   29.90F HX 103           
COTULLA        MOSUNNY   95  69  42 SE15G24   29.86F HX 100           
*FAITH RANCH     N/A    N/A N/A N/A MISG        N/A                   
LAREDO         PTSUNNY   94  73  50 SE20G25   29.86F HX 103           
$$

TXZ248>255-282100-
DEEP SOUTH TEXAS
  
CITY           SKY/WX    TMP DP  RH WIND       PRES   REMARKS
BROWNSVILLE    PTSUNNY   88  75  65 SE21G29   29.90S HX  97           
PORT ISABEL    PTSUNNY   89  75  63 SE23G29   29.88F HX  99           
*SOUTH PADRE     N/A     86  77  74 SE13      29.91S HX  97           
HARLINGEN      PTSUNNY   92  74  55 SE18G24   29.87S HX 101           
*HEBBRONVILLE  MOSUNNY   92  70  48 SE9G18    29.89F HX  98           
MCALLEN        PTSUNNY   91  74  57 SE18G24   29.87S HX 100           
*WESLACO       CLOUDY    91  72  52 SE16      29.87S HX  98           
FALFURRIAS     MOSUNNY   91  73  56 E14G20    29.87F HX  99           
EDINBURG       MOSUNNY   94  72  49 SE12G20   29.87S HX 102           
*ZAPATA        MOSUNNY   93  70  47 SE15      29.84F HX  99           
$$

TXZ213>215-236>238-242>244-246-247-251-254-255-282100-
CMAN STATIONS
  
STATION/POSITION TIME  TEMP    WIND        PRES    WAVE
                       AIR SEA DIR/SP/G            HT/PER
                 (UTC) (F)     (DEG/KT/KT) (MB)    (FT/S)
SABINE PASS      1900   81 80  150/  6/ 11 1017.2
SEA RIM ST PARK  2000   81     170/  5/  6 1016.3
NORTH JETTY/GLS  1900   82 80                N/A
EAGLE POINT      1900   81 74  140/  7/  8 1015.3
MORGANS POINT    1900   83 74  110/  9/ 13 1015.1
MISSION/ARANSAS  1900   83                 1014.0
PORT O'CONNOR    1900          150/ 15/ 17   N/A
PORT ARANSAS     2000   81 82  140/ 20/ 22 1014.1
MALAQUITE BEACH  1900   81 83  130/ 17/ 20 1013.7
BAFFIN BAY       1900   82 86  140/ 18/ 22 1013.4
PORT ISABEL      1900   84 80  170/ 11/ 16 1012.7
$$

GMZ080-GMZ150>470-282100-
OFFSHORE BUOY REPORTS
  
STATION/POSITION TIME  TEMP    WIND        PRES    WAVE
                       AIR SEA DIR/SP/G            HT/PER
                 (UTC) (F)     (DEG/KT/KT) (MB)    (FT/S)
20 E GALVESTON   1950   80 84   90/  4/  6 1015.3    3/ 8
90 E PT ARANSAS  1950   82 80  140/ 14/ 16 1014.3    5/ 7
35 NE PT MANSFLD 1950   81 81  130/ 14/ 17 1012.9    8/ 8
200 E PT ISABEL  1950                        N/A     5/ 7
$$
  

Return to Home page


Western Regional Climate Center, wrcc@dri.edu